Flag for Uruguay Weather past 2 weeks in Maldonado, Uruguay

Now
52 °F

Passing clouds.


Feels Like: 48 °F
Forecast: 47 / 62 °F
Wind: 12 mph from South

Location: Capitan Corbeta

Current Time: Sep 15, 2014 at 10:08:01 PM

Latest Report: Sep 15, 2014 at 9:00 PM


Visibility: N/A

Pressure: 30.01 "Hg

Humidity: 88%

Dew point: 48 °F

Location of MaldonadoLocation

Historic Weather in Maldonado — Graph

°F

Maldonado temperature yesterday

Maximum temperature yesterday: 61 °F (at 3:00 PM)
Minimum temperature yesterday: 55 °F (at 12:00 AM)
Average temperature yesterday: 58 °F

Past Weeks' High & Low Weather Summary

 TemperatureHumidityPressure
High75 °F (Sep 9, 9:00 AM)100% (Sep 9, 3:00 PM)30.30 "Hg (Sep 9, 3:00 PM)
Low41 °F (Sep 12, 7:00 AM)34% (Sep 11, 4:00 PM)29.50 "Hg (Sep 9, 9:00 AM)
Average58 °F80%29.99 "Hg
* Reported Aug 31 9:00 PM — Sep 15 9:00 PM, Maldonado, Weather by CustomWeather, © 2014

Note: Actual official high and low records may vary slightly from our data, if they occured in-between our weather recording intervals... More about our weather records

Advertising

Maldonado weather history for previous 24 hours

 ConditionsComfort  
Time TempWeatherWind HumidityBarometerVisibility
9:00 PM
Sep 15
52 °FPassing clouds.12 mph88%30.01 "HgN/A
8:00 PM54 °FPassing clouds.14 mph82%30.01 "HgN/A
7:00 PM54 °FPassing clouds.13 mph88%30.01 "HgN/A
6:00 PM57 °FPassing clouds.16 mph77%29.95 "HgN/A
5:00 PM57 °FScattered clouds.16 mph82%29.95 "HgN/A
3:00 PM59 °FPassing clouds.17 mph77%29.95 "HgN/A
2:00 PM59 °FSunny.16 mph77%29.95 "Hg10 mi
1:00 PM59 °FSunny.15 mph77%29.95 "Hg10 mi
12:00 PM59 °FScattered clouds.14 mph77%29.95 "HgN/A
11:00 AM55 °FScattered clouds.21 mph82%29.95 "HgN/A
10:00 AM57 °FPartly sunny.14 mph82%29.92 "HgN/A
9:00 AM55 °FPartly sunny.12 mph88%29.92 "HgN/A
8:00 AM55 °FLow clouds.16 mph94%29.89 "HgN/A
7:00 AM55 °FLight rain. Mostly cloudy.16 mph94%29.83 "HgN/A
6:00 AM55 °FLight rain. Low clouds.17 mph94%29.83 "Hg5 mi
4:00 AM57 °FLight rain. Low clouds.15 mph94%29.83 "Hg2 mi
3:00 AM57 °FLight rain. Low clouds.14 mph94%29.83 "Hg1 mi
2:00 AM57 °FLight rain. Low clouds.14 mph94%29.80 "Hg1 mi
1:00 AM57 °FRain. Low clouds.14 mph94%29.86 "Hg1 mi
12:00 AM57 °FCool.No wind100%29.86 "HgN/A
11:00 PM
Sep 14
57 °FFog.9 mph100%29.86 "Hg1 mi
Weather by CustomWeather, © 2014

See weather overviewHow to use our weather pages